Time,TemperatureF,DewpointF,PressureIn,WindDirection,WindDirectionDegrees,WindSpeedMPH,WindSpeedGustMPH,Humidity,HourlyPrecipIn,Conditions,Clouds,dailyrainin,SoftwareType,DateUTC
2013-04-25 00:03:00,37.0,30.0,-100.00,SW,230,7.0,10.0,75,0.00,,,-99.99,,2013-04-25 04:03:00,
2013-04-25 00:12:00,37.0,29.0,-100.00,SW,235,6.0,11.0,76,0.00,,,-99.99,,2013-04-25 04:12:00,
2013-04-25 00:23:00,36.0,29.0,-100.00,SW,235,6.0,10.0,75,0.00,,,-99.99,,2013-04-25 04:23:00,
2013-04-25 00:33:00,36.0,29.0,-100.00,SW,235,5.0,7.0,75,0.00,,,-99.99,,2013-04-25 04:33:00,
2013-04-25 00:43:00,36.0,29.0,-100.00,SW,230,6.0,8.0,75,0.00,,,-99.99,,2013-04-25 04:43:00,
2013-04-25 00:52:00,35.0,29.0,-100.00,SSW,210,3.0,7.0,77,0.00,,,-99.99,,2013-04-25 04:52:00,
2013-04-25 01:03:00,35.0,29.0,-100.00,SW,225,4.0,7.0,79,0.00,,,-99.99,,2013-04-25 05:03:00,
2013-04-25 01:12:00,35.0,29.0,-100.00,SW,215,3.0,6.0,79,0.00,,,-99.99,,2013-04-25 05:12:00,
2013-04-25 01:21:00,34.0,29.0,-100.00,SSW,210,4.0,4.0,80,0.00,,,-99.99,,2013-04-25 05:21:00,
2013-04-25 01:32:00,35.0,29.0,-100.00,SW,215,3.0,6.0,79,0.00,,,-99.99,,2013-04-25 05:32:00,
2013-04-25 01:42:00,34.0,28.0,-100.00,SW,220,4.0,6.0,79,0.00,,,-99.99,,2013-04-25 05:42:00,
2013-04-25 01:51:00,35.0,28.0,-100.00,SW,220,4.0,6.0,77,0.00,,,-99.99,,2013-04-25 05:51:00,
2013-04-25 02:02:00,35.0,28.0,-100.00,SW,220,4.0,6.0,77,0.00,,,-99.99,,2013-04-25 06:02:00,
2013-04-25 02:11:00,34.0,28.0,-100.00,SW,215,3.0,6.0,77,0.00,,,-99.99,,2013-04-25 06:11:00,
2013-04-25 02:22:00,34.0,28.0,-100.00,SW,215,3.0,5.0,77,0.00,,,-99.99,,2013-04-25 06:22:00,
2013-04-25 02:32:00,34.0,28.0,-100.00,SW,215,3.0,4.0,76,0.00,,,-99.99,,2013-04-25 06:32:00,
2013-04-25 02:42:00,34.0,27.0,-100.00,SSW,205,4.0,6.0,77,0.00,,,-99.99,,2013-04-25 06:42:00,
2013-04-25 02:52:00,34.0,27.0,-100.00,SSW,210,4.0,6.0,75,0.00,,,-99.99,,2013-04-25 06:52:00,
2013-04-25 03:02:00,34.0,27.0,-100.00,SSW,210,4.0,6.0,74,0.00,,,-99.99,,2013-04-25 07:02:00,
2013-04-25 03:12:00,34.0,27.0,-100.00,SSW,210,4.0,6.0,73,0.00,,,-99.99,,2013-04-25 07:12:00,
2013-04-25 03:22:00,34.0,27.0,-100.00,SW,215,6.0,8.0,74,0.00,,,-99.99,,2013-04-25 07:22:00,
2013-04-25 03:32:00,35.0,27.0,-100.00,SW,215,5.0,7.0,72,0.00,,,-99.99,,2013-04-25 07:32:00,
2013-04-25 03:42:00,35.0,27.0,-100.00,SSW,210,5.0,8.0,72,0.00,,,-99.99,,2013-04-25 07:42:00,
2013-04-25 03:52:00,35.0,27.0,-100.00,SSW,205,6.0,8.0,72,0.00,,,-99.99,,2013-04-25 07:52:00,
2013-04-25 04:02:00,35.0,27.0,-100.00,SSW,210,6.0,8.0,72,0.00,,,-99.99,,2013-04-25 08:02:00,
2013-04-25 04:11:00,35.0,27.0,-100.00,SSW,210,6.0,9.0,73,0.00,,,-99.99,,2013-04-25 08:11:00,
2013-04-25 04:21:00,34.0,27.0,-100.00,SSW,200,5.0,8.0,75,0.00,,,-99.99,,2013-04-25 08:21:00,
2013-04-25 04:32:00,35.0,28.0,-100.00,SW,215,6.0,9.0,75,0.00,,,-99.99,,2013-04-25 08:32:00,
2013-04-25 04:42:00,35.0,28.0,-100.00,SSW,210,6.0,9.0,74,0.00,,,-99.99,,2013-04-25 08:42:00,
2013-04-25 04:51:00,36.0,28.0,-100.00,SW,220,7.0,11.0,75,0.00,,,-99.99,,2013-04-25 08:51:00,
2013-04-25 05:01:00,36.0,29.0,-100.00,SW,225,6.0,11.0,75,0.00,,,-99.99,,2013-04-25 09:01:00,
2013-04-25 05:11:00,36.0,29.0,-100.00,SW,215,6.0,10.0,76,0.00,,,-99.99,,2013-04-25 09:11:00,
2013-04-25 05:21:00,36.0,29.0,-100.00,SW,220,6.0,9.0,77,0.00,,,-99.99,,2013-04-25 09:21:00,
2013-04-25 05:33:00,35.0,29.0,-100.00,SW,215,6.0,11.0,78,0.00,,,-99.99,,2013-04-25 09:33:00,
2013-04-25 05:42:00,35.0,29.0,-100.00,SSW,210,6.0,10.0,79,0.00,,,-99.99,,2013-04-25 09:42:00,
2013-04-25 05:52:00,35.0,29.0,-100.00,SSW,210,6.0,9.0,80,0.00,,,-99.99,,2013-04-25 09:52:00,
2013-04-25 06:02:00,35.0,30.0,-100.00,SSW,210,6.0,8.0,81,0.00,,,-99.99,,2013-04-25 10:02:00,
2013-04-25 06:12:00,35.0,30.0,-100.00,SSW,205,6.0,8.0,82,0.00,,,-99.99,,2013-04-25 10:12:00,
2013-04-25 06:22:00,34.0,30.0,-100.00,SSW,200,7.0,9.0,82,0.00,,,-99.99,,2013-04-25 10:22:00,
2013-04-25 06:33:00,34.0,29.0,-100.00,SSW,205,6.0,9.0,83,0.00,,,-99.99,,2013-04-25 10:33:00,
2013-04-25 06:42:00,34.0,29.0,-100.00,SSW,210,6.0,7.0,84,0.00,,,-99.99,,2013-04-25 10:42:00,
2013-04-25 06:52:00,34.0,30.0,-100.00,SSW,210,6.0,9.0,83,0.00,,,-99.99,,2013-04-25 10:52:00,
2013-04-25 07:02:00,35.0,30.0,-100.00,SSW,205,7.0,10.0,82,0.00,,,-99.99,,2013-04-25 11:02:00,
2013-04-25 07:12:00,35.0,30.0,-100.00,SSW,205,7.0,10.0,82,0.00,,,-99.99,,2013-04-25 11:12:00,
2013-04-25 07:22:00,35.0,30.0,-100.00,SSW,200,7.0,10.0,81,0.00,,,-99.99,,2013-04-25 11:22:00,
2013-04-25 07:32:00,36.0,30.0,-100.00,SSW,205,7.0,11.0,80,0.00,,,-99.99,,2013-04-25 11:32:00,
2013-04-25 07:42:00,36.0,31.0,-100.00,SSW,200,6.0,9.0,80,0.00,,,-99.99,,2013-04-25 11:42:00,
2013-04-25 07:52:00,36.0,31.0,-100.00,SSW,200,9.0,12.0,80,0.00,,,-99.99,,2013-04-25 11:52:00,
2013-04-25 08:01:00,36.0,31.0,-100.00,South,190,9.0,12.0,80,0.00,,,-99.99,,2013-04-25 12:01:00,
2013-04-25 08:12:00,37.0,31.0,-100.00,SSW,205,7.0,13.0,80,0.00,,,-99.99,,2013-04-25 12:12:00,
2013-04-25 08:21:00,38.0,32.0,-100.00,SSW,195,7.0,11.0,79,0.00,,,-99.99,,2013-04-25 12:21:00,
2013-04-25 08:32:00,38.0,32.0,-100.00,SSW,195,11.0,13.0,79,0.00,,,-99.99,,2013-04-25 12:32:00,
2013-04-25 08:42:00,39.0,33.0,-100.00,SSW,205,9.0,14.0,78,0.00,,,-99.99,,2013-04-25 12:42:00,
2013-04-25 08:51:00,40.0,33.0,-100.00,SSW,200,11.0,15.0,76,0.00,,,-99.99,,2013-04-25 12:51:00,
2013-04-25 09:02:00,41.0,34.0,-100.00,SSW,200,9.0,18.0,75,0.00,,,-99.99,,2013-04-25 13:02:00,
2013-04-25 09:11:00,42.0,35.0,-100.00,SSW,200,11.0,16.0,75,0.00,,,-99.99,,2013-04-25 13:11:00,
2013-04-25 09:21:00,42.0,34.0,-100.00,SSW,200,16.0,19.0,72,0.00,,,-99.99,,2013-04-25 13:21:00,
2013-04-25 09:32:00,43.0,35.0,-100.00,SSW,200,11.0,17.0,71,0.00,,,-99.99,,2013-04-25 13:32:00,
2013-04-25 09:42:00,44.0,35.0,-100.00,SSW,200,11.0,17.0,70,0.00,,,-99.99,,2013-04-25 13:42:00,
2013-04-25 09:52:00,45.0,35.0,-100.00,SSW,210,11.0,21.0,69,0.00,,,-99.99,,2013-04-25 13:52:00,
2013-04-25 10:02:00,45.0,35.0,-100.00,SSW,210,14.0,23.0,66,0.00,,,-99.99,,2013-04-25 14:02:00,
2013-04-25 10:11:00,46.0,35.0,-100.00,SSW,200,17.0,22.0,67,0.00,,,-99.99,,2013-04-25 14:11:00,
2013-04-25 10:21:00,46.0,36.0,-100.00,SSW,200,14.0,22.0,67,0.00,,,-99.99,,2013-04-25 14:21:00,
2013-04-25 10:32:00,47.0,36.0,-100.00,SSW,195,14.0,22.0,65,0.00,,,-99.99,,2013-04-25 14:32:00,
2013-04-25 10:42:00,47.0,35.0,-100.00,SW,215,15.0,25.0,62,0.00,,,-99.99,,2013-04-25 14:42:00,
2013-04-25 10:51:00,47.0,34.0,-100.00,SSW,210,17.0,24.0,59,0.00,,,-99.99,,2013-04-25 14:51:00,
2013-04-25 11:02:00,48.0,35.0,-100.00,SSW,205,17.0,25.0,61,0.00,,,-99.99,,2013-04-25 15:02:00,
2013-04-25 11:11:00,49.0,36.0,-100.00,SSW,200,17.0,29.0,62,0.00,,,-99.99,,2013-04-25 15:11:00,
2013-04-25 11:21:00,48.0,35.0,-100.00,SW,215,17.0,29.0,59,0.00,,,-99.99,,2013-04-25 15:21:00,
2013-04-25 11:33:00,48.0,35.0,-100.00,SSW,210,17.0,25.0,59,0.00,,,-99.99,,2013-04-25 15:33:00,
2013-04-25 11:42:00,48.0,34.0,-100.00,SW,225,17.0,25.0,59,0.00,,,-99.99,,2013-04-25 15:42:00,
2013-04-25 11:53:00,47.0,34.0,-100.00,SW,220,16.0,22.0,59,0.00,,,-99.99,,2013-04-25 15:53:00,
2013-04-25 12:02:00,47.0,33.0,-100.00,SW,230,18.0,25.0,59,0.55,,,-99.99,,2013-04-25 16:02:00,
2013-04-25 12:13:00,47.0,33.0,-100.00,SW,225,17.0,25.0,59,0.00,,,-99.99,,2013-04-25 16:13:00,
2013-04-25 12:24:00,48.0,35.0,-100.00,SSW,200,18.0,27.0,60,0.00,,,-99.99,,2013-04-25 16:24:00,
2013-04-25 12:33:00,47.0,35.0,-100.00,SSW,200,16.0,29.0,62,0.00,,,-99.99,,2013-04-25 16:33:00,
2013-04-25 12:43:00,47.0,34.0,-100.00,SSW,200,18.0,24.0,60,0.00,,,-99.99,,2013-04-25 16:43:00,
2013-04-25 12:52:00,47.0,35.0,-100.00,SW,220,11.0,19.0,62,0.00,,,-99.99,,2013-04-25 16:52:00,
2013-04-25 13:02:00,46.0,35.0,-100.00,SW,225,16.0,28.0,63,0.55,,,-99.99,,2013-04-25 17:02:00,
2013-04-25 13:11:00,47.0,35.0,-100.00,SW,235,12.0,22.0,64,0.00,,,-99.99,,2013-04-25 17:11:00,
2013-04-25 13:22:00,48.0,36.0,-100.00,SW,230,14.0,24.0,64,0.00,,,-99.99,,2013-04-25 17:22:00,
2013-04-25 13:32:00,47.0,35.0,-100.00,SW,220,19.0,28.0,63,0.00,,,-99.99,,2013-04-25 17:32:00,
2013-04-25 13:42:00,46.0,36.0,-100.00,SW,220,13.0,25.0,67,0.55,,,-99.99,,2013-04-25 17:42:00,
2013-04-25 13:53:00,46.0,36.0,-100.00,SW,230,17.0,27.0,69,0.00,,,-99.99,,2013-04-25 17:53:00,
2013-04-25 14:01:00,46.0,38.0,-100.00,WSW,240,12.0,24.0,72,0.00,,,-99.99,,2013-04-25 18:01:00,
2013-04-25 14:11:00,47.0,37.0,-100.00,SW,230,12.0,21.0,67,0.00,,,-99.99,,2013-04-25 18:11:00,
2013-04-25 14:22:00,44.0,37.0,-100.00,West,270,15.0,29.0,77,6.77,,,-99.99,,2013-04-25 18:22:00,
2013-04-25 14:32:00,45.0,39.0,-100.00,SW,235,9.0,23.0,78,0.00,,,-99.99,,2013-04-25 18:32:00,
2013-04-25 14:42:00,46.0,38.0,-100.00,SW,225,9.0,15.0,74,0.00,,,-99.99,,2013-04-25 18:42:00,
2013-04-25 14:52:00,46.0,38.0,-100.00,SW,225,8.0,15.0,72,0.55,,,-99.99,,2013-04-25 18:52:00,
2013-04-25 15:02:00,45.0,36.0,-100.00,West,265,12.0,25.0,71,10.20,,,-99.99,,2013-04-25 19:02:00,
2013-04-25 15:12:00,43.0,37.0,-100.00,WSW,240,11.0,20.0,80,0.00,,,-99.99,,2013-04-25 19:12:00,
2013-04-25 15:21:00,43.0,38.0,-100.00,WSW,250,9.0,17.0,81,0.55,,,-99.99,,2013-04-25 19:21:00,
2013-04-25 15:32:00,44.0,37.0,-100.00,West,260,7.0,15.0,77,0.55,,,-99.99,,2013-04-25 19:32:00,
2013-04-25 15:42:00,44.0,38.0,-100.00,West,275,6.0,12.0,78,0.00,,,-99.99,,2013-04-25 19:42:00,
2013-04-25 15:52:00,45.0,36.0,-100.00,WSW,245,7.0,13.0,71,0.00,,,-99.99,,2013-04-25 19:52:00,
2013-04-25 16:02:00,46.0,37.0,-100.00,SW,230,6.0,18.0,70,0.00,,,-99.99,,2013-04-25 20:02:00,
2013-04-25 16:11:00,46.0,35.0,-100.00,SW,230,10.0,16.0,67,0.00,,,-99.99,,2013-04-25 20:11:00,
2013-04-25 16:22:00,46.0,36.0,-100.00,WSW,245,10.0,14.0,67,0.00,,,-99.99,,2013-04-25 20:22:00,
2013-04-25 16:32:00,46.0,36.0,-100.00,WSW,255,9.0,16.0,67,0.00,,,-99.99,,2013-04-25 20:32:00,
2013-04-25 16:42:00,48.0,37.0,-100.00,WSW,250,7.0,13.0,65,0.00,,,-99.99,,2013-04-25 20:42:00,
2013-04-25 16:52:00,48.0,35.0,-100.00,SW,235,7.0,15.0,61,0.00,,,-99.99,,2013-04-25 20:52:00,
2013-04-25 17:01:00,48.0,35.0,-100.00,SW,225,10.0,16.0,61,0.00,,,-99.99,,2013-04-25 21:01:00,
2013-04-25 17:11:00,48.0,35.0,-100.00,SW,225,9.0,14.0,61,0.00,,,-99.99,,2013-04-25 21:11:00,
2013-04-25 17:22:00,48.0,36.0,-100.00,West,265,6.0,12.0,62,0.00,,,-99.99,,2013-04-25 21:22:00,
2013-04-25 17:33:00,51.0,35.0,-100.00,West,275,9.0,19.0,53,0.00,,,-99.99,,2013-04-25 21:33:00,
2013-04-25 17:42:00,51.0,33.0,-100.00,West,270,12.0,22.0,48,0.00,,,-99.99,,2013-04-25 21:42:00,
2013-04-25 17:52:00,51.0,34.0,-100.00,West,265,6.0,24.0,51,0.00,,,-99.99,,2013-04-25 21:52:00,
2013-04-25 18:03:00,49.0,33.0,-100.00,West,280,12.0,20.0,53,0.00,,,-99.99,,2013-04-25 22:03:00,
2013-04-25 18:12:00,48.0,35.0,-100.00,WNW,285,6.0,19.0,60,1.69,,,-99.99,,2013-04-25 22:12:00,
2013-04-25 18:22:00,48.0,35.0,-100.00,West,270,9.0,18.0,60,0.00,,,-99.99,,2013-04-25 22:22:00,
2013-04-25 18:33:00,50.0,32.0,-100.00,West,270,11.0,18.0,50,0.00,,,-99.99,,2013-04-25 22:33:00,
2013-04-25 18:42:00,50.0,33.0,-100.00,WNW,295,7.0,17.0,50,0.00,,,-99.99,,2013-04-25 22:42:00,
2013-04-25 18:52:00,51.0,32.0,-100.00,WNW,295,8.0,17.0,49,0.00,,,-99.99,,2013-04-25 22:52:00,
2013-04-25 19:02:00,51.0,32.0,-100.00,West,280,9.0,16.0,49,0.00,,,-99.99,,2013-04-25 23:02:00,
2013-04-25 19:12:00,51.0,32.0,-100.00,West,270,10.0,14.0,49,0.00,,,-99.99,,2013-04-25 23:12:00,
2013-04-25 19:22:00,51.0,33.0,-100.00,West,270,6.0,12.0,49,0.00,,,-99.99,,2013-04-25 23:22:00,
2013-04-25 19:32:00,51.0,29.0,-100.00,WNW,285,9.0,15.0,42,0.00,,,-99.99,,2013-04-25 23:32:00,
2013-04-25 19:42:00,50.0,29.0,-100.00,WNW,285,6.0,16.0,44,0.00,,,-99.99,,2013-04-25 23:42:00,
2013-04-25 19:52:00,50.0,28.0,-100.00,West,270,10.0,17.0,43,0.00,,,-99.99,,2013-04-25 23:52:00,
2013-04-25 20:01:00,49.0,29.0,-100.00,WNW,285,7.0,16.0,44,0.00,,,-99.99,,2013-04-26 00:01:00,
2013-04-25 20:11:00,49.0,28.0,-100.00,West,270,7.0,14.0,45,0.00,,,-99.99,,2013-04-26 00:11:00,
2013-04-25 20:21:00,48.0,29.0,-100.00,West,280,6.0,14.0,47,0.00,,,-99.99,,2013-04-26 00:21:00,
2013-04-25 20:32:00,47.0,30.0,-100.00,WNW,285,4.0,10.0,52,0.00,,,-99.99,,2013-04-26 00:32:00,
2013-04-25 20:41:00,47.0,29.0,-100.00,West,270,6.0,11.0,49,0.00,,,-99.99,,2013-04-26 00:41:00,
2013-04-25 20:51:00,47.0,30.0,-100.00,WNW,300,4.0,9.0,52,0.00,,,-99.99,,2013-04-26 00:51:00,
2013-04-25 21:01:00,45.0,31.0,-100.00,WNW,295,4.0,6.0,59,0.00,,,-99.99,,2013-04-26 01:01:00,
2013-04-25 21:11:00,45.0,31.0,-100.00,West,275,4.0,7.0,57,0.00,,,-99.99,,2013-04-26 01:11:00,
2013-04-25 21:21:00,44.0,31.0,-100.00,West,275,4.0,7.0,59,0.00,,,-99.99,,2013-04-26 01:21:00,
2013-04-25 21:32:00,44.0,30.0,-100.00,West,275,3.0,7.0,58,0.00,,,-99.99,,2013-04-26 01:32:00,
2013-04-25 21:42:00,44.0,30.0,-100.00,WNW,285,4.0,7.0,58,0.00,,,-99.99,,2013-04-26 01:42:00,
2013-04-25 21:52:00,43.0,30.0,-100.00,West,280,2.0,7.0,61,0.00,,,-99.99,,2013-04-26 01:52:00,
2013-04-25 22:02:00,42.0,30.0,-100.00,WNW,290,3.0,4.0,63,0.00,,,-99.99,,2013-04-26 02:02:00,
2013-04-25 22:11:00,42.0,30.0,-100.00,West,275,3.0,6.0,63,0.00,,,-99.99,,2013-04-26 02:11:00,
2013-04-25 22:21:00,41.0,30.0,-100.00,West,280,2.0,6.0,62,0.00,,,-99.99,,2013-04-26 02:21:00,
2013-04-25 22:32:00,41.0,30.0,-100.00,West,280,2.0,4.0,63,0.00,,,-99.99,,2013-04-26 02:32:00,
2013-04-25 22:42:00,41.0,30.0,-100.00,West,280,3.0,5.0,64,0.00,,,-99.99,,2013-04-26 02:42:00,
2013-04-25 22:51:00,40.0,29.0,-100.00,West,280,1.0,4.0,63,0.00,,,-99.99,,2013-04-26 02:51:00,
2013-04-25 23:01:00,40.0,29.0,-100.00,West,280,2.0,4.0,66,0.00,,,-99.99,,2013-04-26 03:01:00,
2013-04-25 23:11:00,39.0,31.0,-100.00,West,270,3.0,4.0,70,0.00,,,-99.99,,2013-04-26 03:11:00,
2013-04-25 23:21:00,39.0,29.0,-100.00,West,265,1.0,4.0,67,0.00,,,-99.99,,2013-04-26 03:21:00,
2013-04-25 23:33:00,39.0,29.0,-100.00,West,265,2.0,4.0,67,0.00,,,-99.99,,2013-04-26 03:33:00,
2013-04-25 23:43:00,39.0,29.0,-100.00,WSW,245,1.0,3.0,67,0.00,,,-99.99,,2013-04-26 03:43:00,
2013-04-25 23:53:00,39.0,29.0,-100.00,WSW,245,1.0,3.0,67,0.00,,,-99.99,,2013-04-26 03:53:00,